Home > Weather > Sunnyvale > Past weeks

Flag for U.S.A. Weather for the Past 2 Weeks in Sunnyvale, California, U.S.A.

Now
59 °F

Sunny.


Feels Like: 60 °F
Forecast: 48 / 68 °F
Wind: 3 mph from North

Location: Moffett Field

Current Time: Feb 12, 2016 at 10:33:25 AM

Latest Report: Feb 12, 2016 at 9:56 AM


Visibility: 7 mi

Pressure: 30.25 "Hg

Humidity: 81%

Dew point: 53 °F

Location of SunnyvaleLocation

Historic Weather in Sunnyvale — Graph

°F

Sunnyvale Temperature Yesterday

Maximum temperature yesterday: 70 °F (at 3:56 PM)
Minimum temperature yesterday: 48 °F (at 6:56 AM)
Average temperature yesterday: 58 °F

High & Low Weather Summary for the Past Weeks

 TemperatureHumidityPressure
High74 °F (Feb 8, 2:56 PM)96% (Jan 29, 11:56 PM)30.48 "Hg (Jan 29, 11:56 PM)
Low40 °F (Feb 3, 3:56 AM)31% (Feb 7, 3:56 PM)29.78 "Hg (Jan 31, 1:56 PM)
Average55 °F68%30.23 "Hg
* Reported Jan 28 8:56 AM — Feb 12 8:56 AM, Sunnyvale, Weather by CustomWeather, © 2016

Note: Actual official high and low records may vary slightly from our data, if they occured in-between our weather recording intervals... More about our weather records

Advertising

Sunnyvale Weather History for the Previous 24 Hours

 ConditionsComfort  
Time TempWeatherWind HumidityBarometerVisibility
8:56 AM
Fri, Feb 12
56 °FSunny.3 mph84%30.24 "Hg7 mi
7:56 AM53 °FFog.No wind86%30.23 "Hg4 mi
6:56 AM50 °FPassing clouds.3 mph86%30.23 "Hg10 mi
5:56 AM49 °FClear.No wind90%30.21 "Hg10 mi
4:56 AM50 °FClear.No wind89%30.20 "Hg10 mi
3:56 AM50 °FClear.No wind89%30.20 "Hg9 mi
2:56 AM52 °FClear.No wind86%30.21 "Hg10 mi
1:56 AM52 °FClear.No wind89%30.22 "Hg8 mi
12:56 AM53 °FClear.No wind89%30.22 "Hg10 mi
11:56 PM
Thu, Feb 11
56 °FClear.No wind84%30.22 "Hg10 mi
10:56 PM57 °FClear.5 mph81%30.21 "Hg10 mi
9:56 PM56 °FClear.No wind84%30.19 "Hg10 mi
8:56 PM58 °FClear.3 mph78%30.19 "Hg10 mi
7:56 PM59 °FClear.No wind78%30.16 "Hg10 mi
6:56 PM61 °FClear.7 mph65%30.17 "Hg10 mi
5:56 PM62 °FClear.No wind56%30.15 "Hg10 mi
4:56 PM66 °FSunny.6 mph54%30.14 "Hg10 mi
3:56 PM70 °FSunny.3 mph42%30.13 "Hg10 mi
2:56 PM67 °FSunny.7 mph53%30.13 "Hg10 mi
12:56 PM67 °FSunny.No wind55%30.14 "Hg10 mi
11:56 AM65 °FSunny.7 mph59%30.16 "Hg9 mi
10:56 AM62 °FSunny.9 mph62%30.18 "Hg10 mi
Weather by CustomWeather, © 2016

See weather overviewHow to use our weather pages